[[{"header":{"parameterUnit":"m.s-1","parameterCategory":2,"la1":30.2991,"la2":30.254,"lo1":-89.0895,"lo2":-89.0444,"dy":0.0017,"dx":0.0017,"nx":28,"ny":28,"refTime":"2025-03-31T03:00:00:Z","depth":"0","parameterNumber":2,"parameterNumberName":"U-component_of_CURRENTS"},"data":[0,0,0,0,0,0,0,0,0,0,0,0,0,0,0,0,0,0,0,0,0,0,0,0,0,0,0,0,0,0,0,0,0,0,0,0,0,0,0,0,0,0,0,0,0,0,0,0,0,0,0,0,0,0,0,0,0,0,0.1428,0.1427,0,0.1337,0.1335,0.1334,0.1246,0.1246,0.1245,0.1244,0.1154,0.1152,0.1151,0,0,0,0,0,0,0,0,0,0,0,0,0,0.1459,0.1459,0.1428,0.1427,0.1426,0.1337,0.1335,0.1334,0.1247,0.1246,0.1245,0.1244,0.1155,0.1153,0.1151,0,0,0,0,0,0,0,0,0,0,0,0,0,0.141,0.1459,0.1428,0.1375,0.137,0.1337,0.1335,0.1333,0.1247,0.1246,0.1245,0.1244,0.1155,0.1153,0.115,0.1157,0,0,0.1143,0.1141,0,0,0,0,0,0,0,0,0.1413,0.1409,0.1384,0.1379,0.1373,0.1305,0.1313,0.1276,0.1247,0.1289,0.1244,0.1243,0.1208,0.1201,0.1181,0.1153,0.1149,0.1142,0.1141,0.114,0.1139,0,0,0,0,0,0,0,0.1417,0.1412,0.1388,0.1383,0.1377,0.1333,0.1325,0.1305,0.1253,0.1285,0.128,0.1277,0.1205,0.1183,0.1178,0.1147,0.1142,0.114,0.1138,0.1137,0.1149,0.115,0,0,0,0,0,0,0.1441,0.1416,0.1391,0.1385,0.1395,0.1334,0.1325,0.1325,0.1253,0.1242,0.1278,0.1273,0.1188,0.1181,0.1175,0.1187,0.114,0.1137,0.1136,0.1147,0.1149,0.1151,0,0,0,0,0,0,0.1442,0.144,0.1394,0.1401,0.1393,0.1336,0.1336,0.1324,0.1307,0.1248,0.1236,0.1274,0.1187,0.1178,0.1167,0.1182,0.1136,0.1134,0.1145,0.1147,0.115,0.1206,0,0,0,0,0,0,0.1444,0.1441,0.1446,0.1403,0.1394,0.1384,0.1337,0.1323,0.1308,0.1301,0.1242,0.1231,0.1186,0.1172,0.1165,0.1178,0.1132,0.1142,0.1146,0.1149,0.1201,0.121,0.1217,0,0,0,0,0,0.1445,0.1448,0.1447,0.1444,0.1404,0.1385,0.1376,0.1328,0.131,0.1308,0.1272,0.1233,0.1189,0.1171,0.1163,0.1175,0.1141,0.1145,0.1149,0.1198,0.1208,0.1217,0,0,0,0,0,0,0.1448,0.1439,0.1436,0.1433,0.1421,0.1372,0.136,0.1342,0.1311,0.1303,0.125,0.1238,0.1237,0.121,0.1191,0.1194,0.1162,0.1164,0.1202,0.1211,0.1219,0.1228,0.113,0,0,0,0,0,0.1461,0.1467,0.1452,0.145,0.1448,0.1413,0.14,0.1376,0.1346,0.133,0.1294,0.1265,0.1248,0.1232,0.1212,0.121,0.1233,0.1218,0.1226,0.1233,0.1238,0.1288,0.1301,0.1164,0.1164,0.1164,0,0,0.1461,0.1458,0.1459,0.1454,0.1435,0.1424,0.14,0.1387,0.1377,0.1328,0.1305,0.1292,0.1258,0.1252,0.1249,0.1227,0.1293,0.1238,0.1243,0.1245,0.1294,0.1307,0.1319,0.1167,0.1167,0.1166,0,0,0.1454,0.1465,0.1464,0.1463,0.1454,0.1438,0.1445,0.1416,0.1403,0.1394,0.1362,0.1365,0.1327,0.1309,0.1294,0.1341,0.1339,0.1338,0.1372,0.1421,0.1432,0.1443,0.1528,0.1545,0.1334,0.1335,0.1335,0,0.1448,0.145,0.146,0.1457,0.1452,0.145,0.1442,0.1434,0.1407,0.1412,0.1395,0.1383,0.1353,0.1358,0.1367,0.1356,0.1399,0.1332,0.1431,0.1441,0.145,0.1535,0.1553,0.1338,0.1337,0.1337,0.1337,0,0.144,0.1442,0.1442,0.1443,0.1445,0.1441,0.1442,0.145,0.1447,0.1442,0.1463,0.1441,0.1435,0.1433,0.1404,0.1458,0.1476,0.144,0.1404,0.1467,0.1553,0.1571,0.1342,0.1341,0.134,0.1339,0,0,0.141,0.143,0.1428,0.1434,0.1439,0.144,0.145,0.1461,0.1482,0.1481,0.1511,0.1496,0.151,0.1497,0.1484,0.1519,0.1629,0.151,0.1511,0.1591,0.178,0.1829,0.1853,0.1612,0.1615,0.1617,0.1827,0,0.1391,0.1393,0.1407,0.1407,0.1409,0.1429,0.1442,0.1463,0.1484,0.152,0.1536,0.1555,0.1527,0.1538,0.1574,0.1613,0.1674,0.1578,0.1709,0.1714,0.1745,0.1873,0.1841,0.2028,0.1845,0.1848,0.185,0,0.1367,0.1377,0.1377,0.1407,0.1411,0.1415,0.146,0.1473,0.1531,0.1555,0.1596,0.1614,0.1674,0.1638,0.176,0.1704,0.1753,0.1785,0.1793,0.1826,0.1795,0.1928,0.2068,0.1998,0.1877,0.1875,0.1873,0,0.1343,0.1354,0.136,0.1366,0.1397,0.1412,0.1432,0.1483,0.1524,0.1588,0.1647,0.1699,0.1767,0.1815,0.1896,0.1834,0.2053,0.1969,0.2069,0.2074,0.2066,0.2066,0.2145,0.207,0.2069,0.2069,0.2068,0,0.1316,0.132,0.1353,0.1356,0.1381,0.1406,0.1447,0.1482,0.1559,0.1634,0.167,0.1765,0.1818,0.1941,0.1964,0.2115,0.2119,0.2122,0.2141,0.2091,0.209,0.204,0.1986,0.2077,0.2075,0.2073,0.2072,0,0.1288,0.1304,0.1319,0.1355,0.1369,0.139,0.146,0.1507,0.1578,0.1687,0.172,0.1865,0.2031,0.2111,0.2239,0.2243,0.229,0.2383,0.2347,0.2358,0.2332,0.2282,0.2295,0.2225,0.2515,0.2518,0.252,0,0.1272,0.1278,0.132,0.1344,0.136,0.1397,0.1438,0.1504,0.1575,0.1756,0.1831,0.2029,0.218,0.2422,0.2472,0.2581,0.2439,0.2594,0.2445,0.2377,0.2334,0.2173,0.2099,0.2478,0.248,0.2481,0.2482,0,0.1253,0.1273,0.1298,0.1346,0.1386,0.143,0.15,0.1557,0.1666,0.1784,0.1982,0.2117,0.2377,0.2504,0.266,0.269,0.2466,0.2624,0.2553,0.2334,0.2165,0.2091,0.2313,0.2494,0.2493,0.2492,0.2492,0.2491,0.1247,0.1268,0.1312,0.1356,0.1407,0.1467,0.1498,0.1602,0.1721,0.1889,0.2047,0.2232,0.2449,0.2671,0.2689,0.2687,0.2587,0.2598,0.2559,0.2414,0.2287,0.2566,0.2753,0.2753,0.2753,0.2753,0.2754,0,0.123,0.127,0.1323,0.1377,0.1425,0.1455,0.1547,0.1582,0.1708,0.1891,0.2058,0.2311,0.2478,0.2589,0.2687,0.262,0.2439,0.255,0.2293,0.2231,0.2508,0.2444,0.2573,0.2573,0.2573,0.2573,0.2573,0.2573,0.1225,0.1268,0.1303,0.1374,0.1417,0.1462,0.1502,0.1572,0.1681,0.1866,0.201,0.216,0.2408,0.2596,0.2581,0.252,0.2277,0.2231,0.2157,0.2336,0.2334,0.2333,0.2259,0.2347,0.2347,0.1784,0.178,0.1777]},{"header":{"parameterUnit":"m.s-1","parameterCategory":2,"la1":30.2991,"la2":30.254,"lo1":-89.0895,"lo2":-89.0444,"dy":0.0017,"dx":0.0017,"nx":28,"ny":28,"refTime":"2025-03-31T03:00:00:Z","depth":"0","parameterNumber":3,"parameterNumberName":"V-component_of_CURRENTS"},"data":[0,0,0,0,0,0,0,0,0,0,0,0,0,0,0,0,0,0,0,0,0,0,0,0,0,0,0,0,0,0,0,0,0,0,0,0,0,0,0,0,0,0,0,0,0,0,0,0,0,0,0,0,0,0,0,0,0,0,0.0141,0.014,0,0.0054,0.0054,0.0053,0.0027,0.0027,0.0027,0.0027,-0.005,-0.0052,-0.0054,0,0,0,0,0,0,0,0,0,0,0,0,0,0.0273,0.0271,0.0141,0.014,0.0138,0.0054,0.0054,0.0053,0.0027,0.0027,0.0027,0.0027,-0.0049,-0.0052,-0.0054,0,0,0,0,0,0,0,0,0,0,0,0,0,0.0207,0.027,0.0141,0.0113,0.0109,0.0055,0.0054,0.0052,0.0027,0.0027,0.0027,0.0027,-0.0048,-0.0051,-0.0055,-0.0079,0,0,-0.0065,-0.0066,0,0,0,0,0,0,0,0,0.0211,0.0203,0.0118,0.0115,0.011,0.0049,0.0071,0.0008,0.0027,0.0062,0.0027,0.0027,-0.0018,-0.0024,-0.0036,-0.0082,-0.0086,-0.0065,-0.0067,-0.0068,-0.0069,0,0,0,0,0,0,0,0.0215,0.0206,0.011,0.0117,0.0112,0.01,0.0091,0.0059,0.0024,0.0059,0.0056,0.0041,-0.002,-0.0033,-0.0038,-0.0087,-0.0065,-0.0068,-0.007,-0.0071,-0.0158,-0.0158,0,0,0,0,0,0,0.0219,0.021,0.0113,0.0107,0.0158,0.0097,0.0088,0.0071,0.0024,0.0016,0.004,0.004,-0.0027,-0.0034,-0.0041,-0.0072,-0.0068,-0.0071,-0.0073,-0.0158,-0.0158,-0.0159,0,0,0,0,0,0,0.0222,0.0211,0.0116,0.0154,0.0141,0.0095,0.0076,0.0069,0.0054,0.001,0.0003,0.0032,-0.0027,-0.0036,-0.0072,-0.0076,-0.0073,-0.0076,-0.0157,-0.0158,-0.0158,-0.0135,0,0,0,0,0,0,0.0227,0.0213,0.0208,0.0155,0.0139,0.0088,0.0075,0.0067,0.0043,0.0041,0.0,-0.0007,-0.0028,-0.0067,-0.0075,-0.008,-0.0078,-0.0157,-0.0158,-0.0158,-0.0136,-0.0135,-0.0135,0,0,0,0,0,0.0232,0.022,0.0208,0.0196,0.0131,0.0088,0.0079,0.0049,0.0042,0.0037,0.0007,-0.0005,-0.0077,-0.007,-0.0079,-0.0085,-0.0157,-0.0157,-0.0158,-0.0136,-0.0135,-0.0135,0,0,0,0,0,0,0.027,0.0214,0.02,0.0171,0.0135,0.0082,0.007,0.005,0.0021,0.002,-0.0015,-0.0025,-0.0055,-0.0076,-0.0067,-0.0112,-0.0117,-0.0119,-0.0096,-0.0096,-0.0096,-0.008,-0.0081,0,0,0,0,0,0.0276,0.0256,0.0202,0.018,0.0163,0.0118,0.0098,0.0076,0.0039,0.0027,-0.0004,-0.0036,-0.0066,-0.0085,-0.0113,-0.0143,-0.0141,-0.0151,-0.0151,-0.015,-0.0144,-0.0143,-0.0141,-0.0161,-0.0161,-0.0161,0,0,0.0284,0.0251,0.0239,0.0188,0.0158,0.013,0.0108,0.0076,0.0054,0.0022,-0.001,-0.0035,-0.0074,-0.0103,-0.0119,-0.0121,-0.0143,-0.0151,-0.015,-0.0145,-0.0144,-0.0142,-0.014,-0.0162,-0.0162,-0.0162,0,0,0.0286,0.0262,0.0245,0.0217,0.017,0.0141,0.0133,0.0082,0.0064,0.0027,0.0001,-0.0026,-0.0077,-0.0102,-0.0122,-0.0137,-0.0139,-0.0146,-0.0134,-0.0134,-0.0132,-0.013,-0.012,-0.0117,-0.0148,-0.0148,-0.0148,0,0.0296,0.0264,0.0234,0.0209,0.0185,0.0148,0.0124,0.0098,0.0043,0.0032,0.0021,-0.0039,-0.0075,-0.0106,-0.0115,-0.0135,-0.0129,-0.0133,-0.0131,-0.0129,-0.0128,-0.0118,-0.0116,-0.0147,-0.0147,-0.0147,-0.0147,0,0.0283,0.0258,0.0245,0.0203,0.0181,0.0153,0.0111,0.0093,0.0069,0.0044,0.0015,-0.0028,-0.0059,-0.0078,-0.0107,-0.0118,-0.0115,-0.0127,-0.0128,-0.0124,-0.0115,-0.0112,-0.0145,-0.0146,-0.0146,-0.0146,0,0,0.029,0.0244,0.0239,0.0227,0.0174,0.0156,0.0126,0.0091,0.0092,0.0046,0.0046,-0.0021,-0.0029,-0.0053,-0.0085,-0.0093,-0.0087,-0.0106,-0.0107,-0.0087,-0.0073,-0.0071,-0.0068,-0.0094,-0.0094,-0.0093,-0.0069,0,0.0282,0.0249,0.0223,0.0198,0.0178,0.0147,0.0131,0.0104,0.0086,0.0083,0.0043,0.0032,-0.0025,-0.0026,-0.005,-0.0069,-0.0081,-0.0092,-0.0088,-0.0088,-0.0078,-0.0065,-0.0068,-0.0046,-0.0066,-0.0066,-0.0066,0,0.027,0.0251,0.0225,0.0205,0.0195,0.0182,0.017,0.0153,0.0139,0.0132,0.0112,0.0092,0.0063,0.0028,-0.0013,-0.0014,-0.0047,-0.0065,-0.0064,-0.0067,-0.0081,-0.0056,-0.0041,-0.0178,-0.0062,-0.0063,-0.0063,0,0.0292,0.0254,0.0239,0.0227,0.0197,0.0192,0.0184,0.0171,0.019,0.0177,0.0213,0.0155,0.0173,0.0106,0.0052,0.0024,0.0032,-0.001,-0.004,-0.004,-0.0044,-0.0044,-0.0153,-0.0036,-0.0036,-0.0036,-0.0036,0,0.0287,0.0279,0.0255,0.0246,0.0257,0.0226,0.0249,0.0239,0.0262,0.0325,0.0252,0.0311,0.0199,0.0188,0.0096,0.005,0.0064,-0.0029,-0.0032,-0.0036,-0.0037,-0.0158,-0.0228,-0.0035,-0.0036,-0.0036,-0.0036,0,0.031,0.0286,0.0283,0.0264,0.0266,0.0281,0.0311,0.0345,0.0354,0.0443,0.0454,0.0454,0.0439,0.0327,0.0252,0.0145,0.0007,0.0051,0.0057,0.0053,-0.0131,-0.0198,-0.0277,-0.0332,0.0009,0.001,0.001,0,0.0318,0.0315,0.0315,0.0339,0.0334,0.0354,0.0384,0.039,0.0454,0.0553,0.0624,0.0635,0.0676,0.0552,0.0351,0.0191,0.0058,0.0074,0.0002,-0.0134,-0.0212,-0.0263,-0.0307,0.0008,0.0008,0.0008,0.0008,0,0.0346,0.0349,0.0356,0.0407,0.0441,0.0483,0.0537,0.0608,0.066,0.0762,0.0914,0.0958,0.0829,0.068,0.0431,0.0296,-0.0026,0.0072,-0.0073,-0.0223,-0.0281,-0.0335,-0.0012,0.0009,0.0009,0.0009,0.0009,0.0009,0.0385,0.0412,0.0439,0.0491,0.0543,0.0632,0.0701,0.0801,0.0943,0.1133,0.1144,0.1248,0.0967,0.0632,0.0418,-0.0001,-0.0001,-0.014,-0.0207,-0.0244,-0.0314,0.0016,0.0033,0.0033,0.0033,0.0033,0.0033,0,0.0429,0.0468,0.0528,0.0601,0.0684,0.069,0.0826,0.0931,0.1139,0.1298,0.1438,0.1361,0.1018,0.0627,0.0068,-0.0232,-0.0353,-0.0398,-0.0494,-0.0524,-0.0233,-0.0255,-0.0295,-0.0295,-0.0295,-0.0295,-0.0295,-0.0294,0.0458,0.0522,0.0556,0.0708,0.0777,0.0909,0.1001,0.1182,0.1322,0.1552,0.1624,0.164,0.1337,0.0335,-0.0333,-0.0499,-0.0725,-0.0767,-0.086,-0.07,-0.0683,-0.0666,-0.0705,-0.0839,-0.084,-0.113,-0.1134,-0.1136]}],[{"header":{"parameterUnit":"m.s-1","parameterCategory":2,"la1":30.2991,"la2":30.254,"lo1":-89.0895,"lo2":-89.0444,"dy":0.0017,"dx":0.0017,"nx":28,"ny":28,"refTime":"2025-03-31T03:00:00:Z","depth":"2","parameterNumber":2,"parameterNumberName":"U-component_of_CURRENTS"},"data":[0,0,0,0,0,0,0,0,0,0,0,0,0,0,0,0,0,0,0,0,0,0,0,0,0,0,0,0,0,0,0,0,0,0,0,0,0,0,0,0,0,0,0,0,0,0,0,0,0,0,0,0,0,0,0,0,0,0,0.1358,0.1358,0,0.1298,0.1297,0.1296,0.1226,0.1226,0.1225,0.1224,0.1148,0.1146,0.1145,0,0,0,0,0,0,0,0,0,0,0,0,0,0.1345,0.1345,0.1358,0.1358,0.1357,0.1298,0.1297,0.1296,0.1226,0.1226,0.1225,0.1224,0.1148,0.1147,0.1145,0,0,0,0,0,0,0,0,0,0,0,0,0,0.132,0.1346,0.1358,0.1319,0.1316,0.1299,0.1297,0.1296,0.1227,0.1226,0.1225,0.1224,0.1149,0.1147,0.1145,0.1149,0,0,0.1138,0.1137,0,0,0,0,0,0,0,0,0.1321,0.132,0.1325,0.1322,0.1318,0.1273,0.1265,0.1247,0.1227,0.1255,0.1224,0.1223,0.1192,0.1186,0.117,0.1146,0.1142,0.1138,0.1136,0.1135,0.1135,0,0,0,0,0,0,0,0.1323,0.1322,0.1329,0.1325,0.1321,0.1282,0.1278,0.126,0.1225,0.1253,0.1249,0.125,0.1189,0.1173,0.1168,0.1141,0.1138,0.1136,0.1134,0.1134,0.1144,0.1146,0,0,0,0,0,0,0.1345,0.1324,0.1331,0.1328,0.1323,0.1284,0.1279,0.1284,0.1226,0.1217,0.1251,0.1247,0.1177,0.1171,0.1165,0.1177,0.1135,0.1133,0.1132,0.1143,0.1145,0.1146,0,0,0,0,0,0,0.1345,0.1347,0.1334,0.1328,0.1324,0.1286,0.1292,0.1284,0.1274,0.1226,0.1216,0.1251,0.1176,0.1168,0.1158,0.1173,0.1132,0.113,0.1141,0.1143,0.1146,0.1194,0,0,0,0,0,0,0.1345,0.1347,0.1354,0.133,0.1326,0.1331,0.1294,0.1283,0.1278,0.1272,0.1223,0.1214,0.1175,0.1162,0.1156,0.1169,0.1129,0.1139,0.1142,0.1145,0.119,0.1198,0.1204,0,0,0,0,0,0.1345,0.1353,0.1355,0.1356,0.1339,0.1333,0.1326,0.1292,0.1279,0.1278,0.1248,0.1216,0.1177,0.1161,0.1154,0.1167,0.1137,0.1141,0.1145,0.1187,0.1196,0.1204,0,0,0,0,0,0,0.1348,0.1347,0.1348,0.1356,0.1354,0.1323,0.1316,0.1306,0.1281,0.1274,0.123,0.1219,0.1219,0.1195,0.1179,0.1183,0.1155,0.1158,0.119,0.1198,0.1205,0.1211,0.1127,0,0,0,0,0,0.1358,0.1363,0.1363,0.1369,0.1372,0.1352,0.1345,0.133,0.1309,0.1297,0.1268,0.1244,0.1229,0.1215,0.1199,0.1197,0.1217,0.1205,0.1212,0.1218,0.1222,0.1272,0.1284,0.1158,0.1158,0.1158,0,0,0.1359,0.1362,0.1363,0.1371,0.1361,0.1358,0.1344,0.1342,0.1335,0.1295,0.1277,0.1268,0.1238,0.1233,0.1231,0.1211,0.1272,0.1223,0.1227,0.1228,0.1277,0.1289,0.13,0.1161,0.116,0.116,0,0,0.1353,0.1372,0.1368,0.1376,0.1379,0.1369,0.1379,0.1366,0.1357,0.1353,0.1327,0.1332,0.1299,0.1284,0.1271,0.1312,0.1312,0.1311,0.1338,0.1388,0.1398,0.1408,0.148,0.1495,0.1307,0.1307,0.1307,0,0.1346,0.1354,0.1367,0.137,0.1373,0.138,0.1378,0.1375,0.136,0.1368,0.1354,0.135,0.1322,0.1329,0.1335,0.1325,0.1364,0.1303,0.1396,0.1406,0.1415,0.1486,0.1502,0.131,0.1309,0.1309,0.1309,0,0.1341,0.1349,0.1352,0.1357,0.1365,0.1369,0.1379,0.139,0.1391,0.1393,0.1418,0.1399,0.1398,0.1397,0.1367,0.1418,0.1432,0.1405,0.1373,0.143,0.1502,0.1518,0.1314,0.1313,0.1312,0.1311,0,0,0.1307,0.1336,0.1337,0.1345,0.1362,0.1369,0.1381,0.1397,0.1419,0.1427,0.1458,0.1446,0.1464,0.1453,0.1442,0.1474,0.157,0.1465,0.1466,0.1533,0.171,0.1709,0.1726,0.1563,0.1565,0.1567,0.1746,0,0.1289,0.1296,0.1316,0.1323,0.1328,0.1357,0.1371,0.1397,0.1421,0.1458,0.1479,0.1501,0.1478,0.149,0.1524,0.1558,0.1611,0.1526,0.1647,0.1652,0.164,0.1743,0.1601,0.1747,0.1762,0.1765,0.1767,0,0.1271,0.1281,0.1286,0.1319,0.1326,0.1336,0.1383,0.1398,0.146,0.1486,0.1533,0.1555,0.1613,0.1581,0.1694,0.1645,0.1685,0.1713,0.172,0.1708,0.1679,0.1687,0.1775,0.1793,0.1791,0.1789,0.1787,0,0.1242,0.126,0.1265,0.1277,0.1314,0.1331,0.1352,0.1408,0.1448,0.1516,0.1574,0.1631,0.1694,0.1742,0.1809,0.1759,0.1949,0.1883,0.1929,0.1931,0.1827,0.1814,0.1973,0.1973,0.1973,0.1972,0.1972,0,0.1217,0.1222,0.1257,0.1264,0.1289,0.132,0.1362,0.14,0.1477,0.1553,0.1594,0.1684,0.174,0.1849,0.1869,0.198,0.2009,0.1969,0.1983,0.1843,0.1831,0.1865,0.185,0.1979,0.1977,0.1976,0.1975,0,0.1185,0.1204,0.1216,0.1257,0.1277,0.1296,0.1372,0.1415,0.1491,0.16,0.1634,0.1767,0.1912,0.1985,0.2097,0.2084,0.2158,0.2184,0.2034,0.2026,0.209,0.2075,0.2249,0.2251,0.2252,0.2253,0.2254,0,0.1166,0.1173,0.1214,0.1239,0.1259,0.13,0.1341,0.141,0.1472,0.166,0.1724,0.1902,0.2022,0.2207,0.2221,0.2296,0.2276,0.2184,0.2039,0.2125,0.2122,0.2105,0.2089,0.1939,0.1938,0.1936,0.1935,0,0.114,0.1158,0.1177,0.1226,0.1266,0.1315,0.1383,0.1435,0.1548,0.1661,0.1843,0.1954,0.2142,0.216,0.2251,0.2252,0.2149,0.2158,0.2317,0.1881,0.1844,0.1837,0.183,0.1923,0.1924,0.1925,0.1926,0.1926,0.1124,0.1134,0.117,0.1219,0.1268,0.1332,0.1364,0.1463,0.157,0.1711,0.1846,0.1953,0.2018,0.208,0.2068,0.2052,0.217,0.2049,0.2048,0.205,0.1972,0.1938,0.2022,0.2024,0.2025,0.2027,0.2028,0,0.1103,0.113,0.1171,0.122,0.1263,0.1308,0.1397,0.1423,0.1539,0.1659,0.1779,0.1704,0.1768,0.1827,0.1797,0.1819,0.1743,0.1739,0.1615,0.1633,0.1648,0.154,0.1481,0.1478,0.1476,0.1474,0,0,0.109,0.1111,0.1138,0.1198,0.1249,0.1295,0.1338,0.1392,0.1459,0.1493,0.1523,0.1658,0.1777,0.1575,0.159,0.1529,0.1548,0.1477,0.1931,0.1803,0.1813,0.1864,0.1726,0,0,0,0,0]},{"header":{"parameterUnit":"m.s-1","parameterCategory":2,"la1":30.2991,"la2":30.254,"lo1":-89.0895,"lo2":-89.0444,"dy":0.0017,"dx":0.0017,"nx":28,"ny":28,"refTime":"2025-03-31T03:00:00:Z","depth":"2","parameterNumber":3,"parameterNumberName":"V-component_of_CURRENTS"},"data":[0,0,0,0,0,0,0,0,0,0,0,0,0,0,0,0,0,0,0,0,0,0,0,0,0,0,0,0,0,0,0,0,0,0,0,0,0,0,0,0,0,0,0,0,0,0,0,0,0,0,0,0,0,0,0,0,0,0,-0.0147,-0.0148,0,-0.019,-0.0191,-0.0191,-0.0192,-0.0192,-0.0191,-0.0191,-0.0232,-0.0233,-0.0235,0,0,0,0,0,0,0,0,0,0,0,0,0,-0.0088,-0.0089,-0.0147,-0.0148,-0.0148,-0.019,-0.0191,-0.0191,-0.0192,-0.0192,-0.0191,-0.0191,-0.0231,-0.0233,-0.0235,0,0,0,0,0,0,0,0,0,0,0,0,0,-0.012,-0.0089,-0.0147,-0.0155,-0.0156,-0.019,-0.0191,-0.0191,-0.0192,-0.0192,-0.0191,-0.019,-0.0231,-0.0233,-0.0235,-0.0261,0,0,-0.0242,-0.0243,0,0,0,0,0,0,0,0,-0.0118,-0.0122,-0.0153,-0.0154,-0.0156,-0.0186,-0.0185,-0.0215,-0.0192,-0.0177,-0.0191,-0.019,-0.0218,-0.0221,-0.0229,-0.0263,-0.0265,-0.0242,-0.0243,-0.0244,-0.0245,0,0,0,0,0,0,0,-0.0116,-0.012,-0.0163,-0.0154,-0.0156,-0.0164,-0.0167,-0.0191,-0.0199,-0.0179,-0.0179,-0.0186,-0.0218,-0.0227,-0.023,-0.0266,-0.0242,-0.0244,-0.0245,-0.0246,-0.0307,-0.0308,0,0,0,0,0,0,-0.0112,-0.0118,-0.0162,-0.0164,-0.0136,-0.0166,-0.0169,-0.0176,-0.0199,-0.0203,-0.0186,-0.0186,-0.0223,-0.0227,-0.0231,-0.0249,-0.0244,-0.0246,-0.0248,-0.0307,-0.0307,-0.0308,0,0,0,0,0,0,-0.0111,-0.0116,-0.016,-0.0143,-0.0149,-0.0167,-0.0175,-0.0177,-0.0183,-0.0206,-0.0208,-0.0189,-0.0223,-0.0228,-0.0249,-0.0251,-0.0247,-0.0249,-0.0307,-0.0307,-0.0307,-0.0294,0,0,0,0,0,0,-0.0109,-0.0115,-0.0115,-0.0143,-0.015,-0.0176,-0.0176,-0.0179,-0.0189,-0.0188,-0.0209,-0.0212,-0.0223,-0.0246,-0.0252,-0.0254,-0.0251,-0.0306,-0.0307,-0.0307,-0.0294,-0.0294,-0.0294,0,0,0,0,0,-0.0107,-0.0107,-0.0115,-0.012,-0.0151,-0.0176,-0.018,-0.019,-0.0189,-0.0192,-0.0207,-0.0211,-0.0253,-0.0248,-0.0255,-0.0258,-0.0306,-0.0307,-0.0307,-0.0294,-0.0294,-0.0294,0,0,0,0,0,0,-0.0068,-0.0108,-0.0117,-0.0126,-0.0149,-0.0176,-0.0179,-0.019,-0.0205,-0.0202,-0.022,-0.0225,-0.0242,-0.0255,-0.0249,-0.0277,-0.0279,-0.0281,-0.0267,-0.0267,-0.0267,-0.025,-0.0253,0,0,0,0,0,-0.0065,-0.0082,-0.0115,-0.0121,-0.0132,-0.0157,-0.0167,-0.0177,-0.0196,-0.0201,-0.0216,-0.0232,-0.0252,-0.0262,-0.0279,-0.03,-0.0299,-0.0305,-0.0305,-0.0304,-0.0295,-0.0297,-0.0296,-0.031,-0.031,-0.031,0,0,-0.0052,-0.0075,-0.0085,-0.0116,-0.0132,-0.0149,-0.016,-0.0175,-0.0186,-0.0205,-0.0216,-0.0233,-0.0258,-0.0276,-0.0285,-0.0286,-0.0301,-0.0305,-0.0305,-0.0296,-0.0297,-0.0296,-0.0295,-0.031,-0.031,-0.031,0,0,-0.0044,-0.0056,-0.0074,-0.0091,-0.0121,-0.0138,-0.0142,-0.017,-0.0178,-0.02,-0.0212,-0.0228,-0.026,-0.0274,-0.0287,-0.0298,-0.0299,-0.0306,-0.0293,-0.0295,-0.0293,-0.0292,-0.0289,-0.0288,-0.0306,-0.0306,-0.0306,0,-0.0035,-0.0051,-0.0079,-0.0097,-0.0105,-0.0132,-0.0143,-0.016,-0.019,-0.0191,-0.0199,-0.0232,-0.0257,-0.0274,-0.0281,-0.0297,-0.0295,-0.0291,-0.0293,-0.0292,-0.0291,-0.0288,-0.0287,-0.0306,-0.0306,-0.0306,-0.0306,0,-0.0038,-0.0051,-0.0058,-0.0092,-0.0104,-0.0115,-0.0143,-0.0151,-0.0163,-0.0176,-0.019,-0.0221,-0.0236,-0.0253,-0.0275,-0.0281,-0.0282,-0.0292,-0.029,-0.0288,-0.0286,-0.0285,-0.0305,-0.0305,-0.0305,-0.0305,0,0,-0.0027,-0.006,-0.006,-0.0068,-0.0099,-0.0107,-0.0122,-0.0139,-0.0131,-0.0162,-0.0152,-0.0201,-0.0206,-0.0221,-0.0247,-0.0257,-0.026,-0.0272,-0.0272,-0.0262,-0.0257,-0.0284,-0.0285,-0.0268,-0.0268,-0.0267,-0.0259,0,-0.0025,-0.0047,-0.0063,-0.0071,-0.0082,-0.0098,-0.0102,-0.0116,-0.0124,-0.0119,-0.015,-0.0153,-0.0198,-0.0198,-0.0219,-0.0242,-0.0255,-0.026,-0.0266,-0.0266,-0.0285,-0.0284,-0.0264,-0.0257,-0.0258,-0.0258,-0.0257,0,-0.0024,-0.0037,-0.0047,-0.0055,-0.0057,-0.006,-0.0052,-0.006,-0.0064,-0.0066,-0.0076,-0.0093,-0.0116,-0.015,-0.0189,-0.0188,-0.0224,-0.0245,-0.0246,-0.0272,-0.029,-0.026,-0.0254,-0.0255,-0.0255,-0.0256,-0.0256,0,-0.0001,-0.0023,-0.0026,-0.003,-0.0044,-0.0037,-0.0037,-0.0037,-0.0018,-0.0023,0.0007,-0.0036,-0.0027,-0.0085,-0.0144,-0.0162,-0.0174,-0.0205,-0.0262,-0.0264,-0.0248,-0.0249,-0.0232,-0.0232,-0.0232,-0.0232,-0.0232,0,0.0004,0.0005,-0.001,-0.001,0.0013,-0.0007,0.0024,0.0023,0.0046,0.0102,0.0044,0.0087,-0.0007,-0.0028,-0.0109,-0.0173,-0.0149,-0.0254,-0.0264,-0.0244,-0.0245,-0.0246,-0.0247,-0.0232,-0.0232,-0.0232,-0.0232,0,0.0022,0.0009,0.001,0.0008,0.0021,0.0037,0.0075,0.0099,0.012,0.0197,0.0207,0.0194,0.0166,0.0069,-0.0008,-0.0107,-0.0182,-0.0213,-0.0185,-0.0192,-0.0281,-0.0282,-0.028,-0.0281,-0.0282,-0.0283,-0.0283,0,0.0024,0.0028,0.0037,0.0062,0.0066,0.0093,0.012,0.0134,0.018,0.0279,0.0328,0.0326,0.0335,0.0194,0.0023,-0.0125,-0.0152,-0.0221,-0.027,-0.0276,-0.0285,-0.0285,-0.0286,-0.0238,-0.0238,-0.0238,-0.0238,0,0.0039,0.0045,0.0048,0.01,0.0131,0.0173,0.0225,0.0273,0.0328,0.0417,0.0533,0.0553,0.0423,0.0275,0.0045,-0.0067,-0.0205,-0.0229,-0.0221,-0.024,-0.0238,-0.0247,-0.0248,-0.0239,-0.0239,-0.0239,-0.0239,-0.0239,0.0055,0.0066,0.0086,0.0142,0.0185,0.0261,0.0308,0.0398,0.0505,0.0654,0.0665,0.0719,0.0514,0.0232,0.0029,-0.0191,-0.0195,-0.0284,-0.0282,-0.028,-0.0288,-0.0289,-0.03,-0.03,-0.03,-0.03,-0.03,0,0.0075,0.0097,0.014,0.0193,0.0254,0.0286,0.0386,0.0452,0.0608,0.0747,0.0848,0.0695,0.0512,0.0294,-0.0027,-0.0245,-0.0262,-0.0312,-0.028,-0.0278,-0.0276,-0.0283,-0.0294,-0.0294,-0.0295,-0.0295,0,0,0.0086,0.0113,0.0137,0.0242,0.0306,0.0393,0.0461,0.059,0.0703,0.0849,0.0911,0.0875,0.0607,0.037,0.0083,-0.0089,-0.0136,-0.0133,-0.0118,-0.0045,-0.004,-0.0243,-0.0249,0,0,0,0,0]}],[{"header":{"parameterUnit":"m.s-1","parameterCategory":2,"la1":30.2991,"la2":30.254,"lo1":-89.0895,"lo2":-89.0444,"dy":0.0017,"dx":0.0017,"nx":28,"ny":28,"refTime":"2025-03-31T03:00:00:Z","depth":"4","parameterNumber":2,"parameterNumberName":"U-component_of_CURRENTS"},"data":[0,0,0,0,0,0,0,0,0,0,0,0,0,0,0,0,0,0,0,0,0,0,0,0,0,0,0,0,0,0,0,0,0,0,0,0,0,0,0,0,0,0,0,0,0,0,0,0,0,0,0,0,0,0,0,0,0,0,0.0636,0.0637,0,0.0709,0.071,0.071,0.0741,0.0742,0.0742,0.0742,0.087,0.0873,0.0876,0,0,0,0,0,0,0,0,0,0,0,0,0,0.0533,0.0534,0.0636,0.0637,0.0638,0.0709,0.071,0.0711,0.0741,0.0742,0.0742,0.0742,0.0868,0.0872,0.0876,0,0,0,0,0,0,0,0,0,0,0,0,0,0.0586,0.0535,0.0636,0.0664,0.0667,0.0709,0.071,0.0711,0.0741,0.0742,0.0742,0.0742,0.0867,0.0872,0.0877,0.0905,0,0,0.0892,0.0894,0,0,0,0,0,0,0,0,0.0583,0.059,0.0659,0.0662,0.0666,0.0718,0.072,0.0779,0.0741,0.0711,0.0742,0.0742,0.0825,0.0834,0.0843,0.0911,0.0917,0.0893,0.0896,0.0898,0.0899,0,0,0,0,0,0,0,0.058,0.0587,0.0663,0.066,0.0664,0.0676,0.0683,0.0731,0.0766,0.0714,0.0717,0.0728,0.0828,0.0838,0.0847,0.0919,0.0892,0.0897,0.09,0.0902,0.1013,0.1013,0,0,0,0,0,0,0.0575,0.0584,0.0661,0.0665,0.0627,0.0678,0.0686,0.07,0.0764,0.0775,0.0728,0.0729,0.083,0.0841,0.0851,0.0931,0.0898,0.0902,0.0905,0.1013,0.1013,0.1013,0,0,0,0,0,0,0.0572,0.0581,0.0658,0.0628,0.0638,0.068,0.0694,0.0701,0.0725,0.0775,0.0786,0.0746,0.083,0.0844,0.0889,0.0935,0.0905,0.0909,0.1013,0.1013,0.1013,0.1064,0,0,0,0,0,0,0.0569,0.058,0.0591,0.0627,0.064,0.0684,0.0695,0.0702,0.0732,0.0735,0.0795,0.0806,0.0831,0.0881,0.0893,0.0941,0.0913,0.1013,0.1013,0.1013,0.1063,0.1066,0.1069,0,0,0,0,0,0.0565,0.0579,0.0591,0.0601,0.0653,0.0685,0.0692,0.072,0.0733,0.0742,0.0774,0.0804,0.0889,0.0885,0.09,0.095,0.1013,0.1013,0.1013,0.1061,0.1065,0.1069,0,0,0,0,0,0,0.0544,0.0585,0.0599,0.0626,0.0654,0.0691,0.0708,0.0727,0.076,0.0767,0.0809,0.0822,0.087,0.0893,0.0887,0.0974,0.0955,0.0958,0.0987,0.0991,0.0994,0.0976,0.0917,0,0,0,0,0,0.0544,0.0563,0.0602,0.0624,0.064,0.0676,0.0695,0.0714,0.0747,0.0762,0.0803,0.0842,0.088,0.092,0.0942,0.1008,0.1017,0.1044,0.1047,0.105,0.1041,0.1079,0.1086,0.1013,0.1013,0.1013,0,0,0.0542,0.0568,0.058,0.062,0.0647,0.0672,0.0687,0.0719,0.0747,0.0773,0.0823,0.0849,0.0889,0.0945,0.0972,0.098,0.1077,0.105,0.1052,0.1041,0.108,0.1088,0.1094,0.1013,0.1013,0.1013,0,0,0.0543,0.0572,0.0585,0.0611,0.0652,0.0675,0.0686,0.0729,0.0756,0.0801,0.0823,0.0864,0.0934,0.0971,0.1001,0.1034,0.1073,0.1055,0.1093,0.1131,0.1138,0.1144,0.1179,0.1188,0.1082,0.1082,0.1082,0,0.0539,0.0567,0.0594,0.0615,0.0643,0.0678,0.0702,0.0734,0.0785,0.0815,0.0817,0.0904,0.0942,0.1018,0.1032,0.1046,0.1072,0.1085,0.1138,0.1144,0.115,0.1184,0.1193,0.1084,0.1084,0.1084,0.1084,0,0.0546,0.0577,0.0589,0.0629,0.0656,0.0685,0.0731,0.0764,0.08,0.0836,0.09,0.094,0.1,0.1025,0.105,0.1121,0.1128,0.1123,0.1136,0.1161,0.1194,0.1203,0.1088,0.1087,0.1086,0.1086,0,0,0.0523,0.0583,0.059,0.0617,0.067,0.0695,0.0742,0.0799,0.084,0.0889,0.0949,0.1012,0.1042,0.1072,0.1116,0.1158,0.1231,0.1173,0.1174,0.1219,0.1328,0.1269,0.1273,0.1252,0.1253,0.1254,0.1342,0,0.0526,0.0564,0.0598,0.0646,0.0672,0.0723,0.0766,0.0821,0.0869,0.0933,0.0992,0.1055,0.1064,0.1112,0.1156,0.1207,0.1254,0.1208,0.1285,0.1287,0.1242,0.128,0.1259,0.1349,0.1351,0.1352,0.1353,0,0.0522,0.0552,0.0594,0.0665,0.0684,0.0727,0.0804,0.0844,0.0931,0.0979,0.1049,0.1088,0.1179,0.1168,0.1271,0.1251,0.1292,0.1317,0.1321,0.1249,0.1243,0.1313,0.1369,0.1367,0.1366,0.1365,0.1364,0,0.0485,0.0554,0.059,0.0614,0.0692,0.0741,0.0791,0.0866,0.0904,0.1019,0.1058,0.1155,0.1234,0.1273,0.1338,0.1322,0.1431,0.1415,0.1393,0.139,0.1395,0.1388,0.147,0.147,0.147,0.147,0.1469,0,0.0471,0.0504,0.059,0.0611,0.0671,0.0735,0.08,0.0866,0.095,0.1006,0.1088,0.1147,0.1267,0.1338,0.1363,0.1411,0.146,0.1398,0.1409,0.1415,0.1408,0.1403,0.1394,0.1473,0.1472,0.1471,0.1471,0,0.0421,0.0473,0.0518,0.0616,0.0655,0.0697,0.08,0.0834,0.093,0.1006,0.1048,0.1185,0.1296,0.1372,0.1479,0.1459,0.149,0.1493,0.1508,0.1517,0.1415,0.1408,0.1471,0.1469,0.1468,0.1467,0.1466,0,0.0402,0.0418,0.0507,0.0536,0.0593,0.0668,0.071,0.082,0.0852,0.1009,0.1035,0.1195,0.1281,0.1375,0.1465,0.1522,0.1509,0.1515,0.1441,0.1412,0.1416,0.141,0.1405,0.1465,0.1464,0.1464,0.1464,0,0.036,0.039,0.0423,0.048,0.0541,0.0584,0.0666,0.0684,0.081,0.0905,0.1021,0.1112,0.1255,0.1356,0.1435,0.1455,0.1496,0.1503,0.1504,0.1435,0.1405,0.1409,0.1405,0.146,0.146,0.1461,0.1461,0,0.0327,0.0332,0.0376,0.0426,0.0478,0.0505,0.0551,0.0628,0.0686,0.0864,0.0914,0.1089,0.1248,0.1323,0.1371,0.1417,0.1396,0.1342,0.1351,0.1357,0.1281,0.1225,0.1238,0,0,0,0,0,0.0298,0.0299,0.0325,0.0366,0.0405,0.045,0.052,0.0563,0.0692,0.075,0.0834,0.0958,0.1107,0.119,0.1221,0.1314,0.1383,0.1342,0.1318,0.1438,0.1442,0.1366,0,0,0,0,0,0,0.028,0.0293,0.0303,0.0311,0.0329,0.0372,0.0418,0.05,0.053,0.0678,0.0758,0.0898,0.104,0.109,0.1204,0.1231,0.1197,0.1454,0.1452,0.1435,0.1439,0.1443,0.1366,0,0,0,0,0]},{"header":{"parameterUnit":"m.s-1","parameterCategory":2,"la1":30.2991,"la2":30.254,"lo1":-89.0895,"lo2":-89.0444,"dy":0.0017,"dx":0.0017,"nx":28,"ny":28,"refTime":"2025-03-31T03:00:00:Z","depth":"4","parameterNumber":3,"parameterNumberName":"V-component_of_CURRENTS"},"data":[0,0,0,0,0,0,0,0,0,0,0,0,0,0,0,0,0,0,0,0,0,0,0,0,0,0,0,0,0,0,0,0,0,0,0,0,0,0,0,0,0,0,0,0,0,0,0,0,0,0,0,0,0,0,0,0,0,0,-0.0247,-0.0247,0,-0.0234,-0.0234,-0.0233,-0.0222,-0.0221,-0.0221,-0.0221,-0.024,-0.0241,-0.0242,0,0,0,0,0,0,0,0,0,0,0,0,0,-0.0257,-0.0257,-0.0247,-0.0247,-0.0247,-0.0234,-0.0234,-0.0233,-0.0222,-0.0221,-0.0221,-0.0221,-0.024,-0.0241,-0.0242,0,0,0,0,0,0,0,0,0,0,0,0,0,-0.025,-0.0257,-0.0247,-0.0239,-0.0238,-0.0234,-0.0234,-0.0233,-0.0222,-0.0221,-0.0221,-0.0221,-0.024,-0.0241,-0.0242,-0.0253,0,0,-0.0245,-0.0245,0,0,0,0,0,0,0,0,-0.025,-0.0249,-0.024,-0.024,-0.0239,-0.0229,-0.0244,-0.0241,-0.0222,-0.0228,-0.0221,-0.0221,-0.0239,-0.024,-0.0238,-0.0254,-0.0255,-0.0245,-0.0245,-0.0246,-0.0246,0,0,0,0,0,0,0,-0.0251,-0.025,-0.0242,-0.024,-0.0239,-0.0234,-0.0233,-0.0243,-0.0236,-0.0228,-0.0227,-0.0225,-0.0239,-0.0237,-0.0239,-0.0255,-0.0245,-0.0246,-0.0246,-0.0247,-0.0242,-0.0241,0,0,0,0,0,0,-0.0252,-0.025,-0.0243,-0.0242,-0.0243,-0.0234,-0.0233,-0.0232,-0.0235,-0.0235,-0.0225,-0.0224,-0.0236,-0.0238,-0.024,-0.0256,-0.0246,-0.0247,-0.0247,-0.0242,-0.0241,-0.0241,0,0,0,0,0,0,-0.0252,-0.0252,-0.0243,-0.0245,-0.0244,-0.0234,-0.0234,-0.0232,-0.0237,-0.0233,-0.0233,-0.0233,-0.0236,-0.0238,-0.0232,-0.0257,-0.0247,-0.0248,-0.0243,-0.0242,-0.0241,-0.0288,0,0,0,0,0,0,-0.0253,-0.0252,-0.0258,-0.0246,-0.0244,-0.0237,-0.0234,-0.0232,-0.0236,-0.0235,-0.024,-0.0241,-0.0236,-0.023,-0.0233,-0.0258,-0.0249,-0.0244,-0.0243,-0.0241,-0.0287,-0.0288,-0.0289,0,0,0,0,0,-0.0253,-0.025,-0.0258,-0.0258,-0.025,-0.0237,-0.0236,-0.0228,-0.0237,-0.0234,-0.0226,-0.0241,-0.0223,-0.023,-0.0233,-0.026,-0.0245,-0.0243,-0.0241,-0.0286,-0.0288,-0.0289,0,0,0,0,0,0,-0.0246,-0.0248,-0.0257,-0.0253,-0.0249,-0.0235,-0.0233,-0.0237,-0.0231,-0.0234,-0.0233,-0.0232,-0.0229,-0.0231,-0.0239,-0.0248,-0.0237,-0.0236,-0.027,-0.0271,-0.0272,-0.024,-0.025,0,0,0,0,0,-0.0252,-0.0257,-0.0254,-0.0251,-0.0251,-0.025,-0.0248,-0.0246,-0.0237,-0.0235,-0.0236,-0.0232,-0.0225,-0.0237,-0.0221,-0.0241,-0.023,-0.0255,-0.0257,-0.0258,-0.023,-0.0233,-0.0232,-0.0235,-0.0235,-0.0235,0,0,-0.0246,-0.0251,-0.0251,-0.0252,-0.025,-0.0233,-0.0248,-0.0244,-0.0229,-0.024,-0.0224,-0.0231,-0.0222,-0.0226,-0.0228,-0.0237,-0.0255,-0.0256,-0.0258,-0.0228,-0.0231,-0.0231,-0.0231,-0.0234,-0.0234,-0.0234,0,0,-0.0223,-0.0245,-0.0235,-0.0233,-0.0235,-0.0232,-0.0235,-0.0231,-0.0231,-0.0224,-0.022,-0.0225,-0.0232,-0.0223,-0.0222,-0.0218,-0.0246,-0.0241,-0.0248,-0.0253,-0.0253,-0.0253,-0.0264,-0.0264,-0.0263,-0.0263,-0.0263,0,-0.0215,-0.0204,-0.0228,-0.0213,-0.0202,-0.023,-0.0203,-0.0207,-0.0201,-0.0196,-0.0217,-0.021,-0.0216,-0.021,-0.0215,-0.0222,-0.024,-0.0255,-0.0257,-0.0256,-0.0256,-0.0266,-0.0266,-0.0265,-0.0264,-0.0264,-0.0264,0,-0.0175,-0.0171,-0.0164,-0.0155,-0.0148,-0.0137,-0.014,-0.0142,-0.016,-0.0164,-0.0168,-0.0182,-0.0188,-0.0203,-0.0215,-0.0225,-0.0245,-0.0249,-0.0262,-0.0259,-0.027,-0.0269,-0.0268,-0.0267,-0.0266,-0.0266,0,0,-0.0146,-0.0136,-0.0136,-0.0126,-0.0119,-0.0111,-0.0088,-0.0076,-0.0072,-0.0098,-0.0094,-0.0108,-0.0158,-0.0157,-0.0197,-0.0209,-0.0241,-0.0248,-0.0247,-0.0272,-0.0276,-0.0285,-0.0285,-0.0274,-0.0274,-0.0273,-0.0296,0,-0.0107,-0.0069,-0.0071,-0.0036,-0.0016,-0.0028,-0.0007,-0.0006,-0.0022,-0.0032,-0.007,-0.0087,-0.0136,-0.0175,-0.0197,-0.0213,-0.0237,-0.0234,-0.026,-0.026,-0.028,-0.0283,-0.0271,-0.0296,-0.0296,-0.0295,-0.0295,0,-0.0069,-0.0048,-0.0005,0.0015,0.0021,0.0024,0.004,0.0056,0.0041,0.0018,-0.0022,-0.0059,-0.0095,-0.0141,-0.0181,-0.0195,-0.0239,-0.025,-0.0252,-0.0233,-0.0266,-0.0289,-0.0293,-0.0294,-0.0294,-0.0294,-0.0294,0,-0.0046,-0.0008,0.0023,0.0031,0.0054,0.0053,0.0053,0.0056,0.0072,0.0025,0.0019,-0.0036,-0.0076,-0.0121,-0.0182,-0.0198,-0.0212,-0.0233,-0.0273,-0.0275,-0.0241,-0.024,-0.0248,-0.0248,-0.0248,-0.0248,-0.0248,0,-0.0011,0.0007,0.0017,0.0027,0.0046,0.0052,0.0064,0.0053,0.0054,0.0072,0.001,0.0003,-0.0077,-0.0105,-0.0163,-0.0219,-0.0211,-0.0256,-0.0274,-0.0263,-0.0264,-0.0242,-0.0241,-0.0249,-0.0249,-0.0249,-0.0248,0,-0.0008,0.0011,0.0036,0.0051,0.0049,0.0047,0.006,0.0081,0.0064,0.0085,0.0066,0.0028,-0.0021,-0.0078,-0.0138,-0.0191,-0.0233,-0.0258,-0.0239,-0.0258,-0.0299,-0.03,-0.0295,-0.0296,-0.0296,-0.0296,-0.0296,0,-0.0005,0.0011,0.0033,0.0045,0.0034,0.004,0.0059,0.0063,0.0096,0.0109,0.0126,0.008,0.0042,-0.0033,-0.0119,-0.0218,-0.0239,-0.027,-0.0279,-0.0282,-0.03,-0.0301,-0.0301,-0.0297,-0.0297,-0.0297,-0.0297,0,-0.0004,-0.0006,0.0011,0.0039,0.0045,0.0093,0.0109,0.0138,0.0166,0.016,0.0178,0.0122,0.007,-0.0019,-0.0105,-0.0177,-0.0249,-0.0274,-0.0274,-0.0283,-0.0284,-0.0302,-0.0302,-0.0298,-0.0298,-0.0298,-0.0298,0,-0.0023,-0.0015,0.0006,0.0028,0.0064,0.0127,0.0142,0.0186,0.0218,0.0237,0.0238,0.0168,0.0121,0.0002,-0.007,-0.0149,-0.0173,-0.0199,-0.0204,-0.0204,-0.0178,-0.0166,-0.0148,0,0,0,0,0,-0.0038,-0.0022,0.0004,0.0046,0.0092,0.0121,0.0183,0.0211,0.0239,0.0264,0.0257,0.0208,0.009,0.0036,-0.0041,-0.0092,-0.0199,-0.0188,-0.0234,-0.0304,-0.0303,-0.029,0,0,0,0,0,0,-0.0042,-0.0028,-0.0002,0.0061,0.01,0.0167,0.0214,0.0242,0.0266,0.0271,0.0218,0.0179,0.007,0.0133,-0.0047,-0.0074,-0.0115,-0.0246,-0.0248,-0.0305,-0.0304,-0.0303,-0.0289,0,0,0,0,0]}]]